This demonstration page uses our WeatherBlox Daily Observations layout. Learn more.

Left ArrowRight Arrow

Hourly Observations for March 26, 2017

Temp ( °F °C ) Dew Point ( °F °C ) Humidity (%) Winds ( mph kmh ) Pressure ( in mb ) Visibility ( mi km ) Precip ( " mm )
12:53 am 00:53 Cloudy 51 10.6 48 8.9 89 89 Calm 30.04 1017 10 16 0.00 0.00
1:53 am 01:53 Cloudy 51 10.6 48 8.9 89 89 Calm 30.03 1017 10 16 0.00 0.00
2:53 am 02:53 Mostly Cloudy 51 10.6 47 8.3 86 86 Calm 30.01 1016 10 16 0.00 0.00
3:53 am 03:53 Cloudy 51 10.6 48 8.9 89 89 Calm 29.98 1015 10 16 0.00 0.00
4:53 am 04:53 Cloudy 51 10.6 48 8.9 89 89 W 3 6 29.97 1015 10 16 0.00 0.00
5:53 am 05:53 Cloudy 52 11.1 47 8.3 83 83 SSW 7 11 29.99 1016 10 16 0.00 0.00
6:53 am 06:53 Cloudy with Light Rain 51 10.6 48 8.9 89 89 SSW 13 20 30.00 1016 7 11 0.01 0.25
7:43 am 07:43 Cloudy with Light Rain 50 10 49 9.4 96 96 SSW 10 17 30.03 1017 10 16 0.09 2.29
7:53 am 07:53 Cloudy with Light Rain 50 10 49 9.4 96 96 SSW 8 13 30.02 1017 7 11 0.09 2.29
8:53 am 08:53 Cloudy with Light Rain 50 10 48 8.9 93 93 S 13 20 30.04 1017 6 10 0.06 1.52
9:24 am 09:24 Cloudy with Light Rain 50 10 48 9 94 94 S 8 13 30.06 1018 7 11 0.00 0.00
9:53 am 09:53 Cloudy with Light Rain 51 10.6 49 9.4 92 92 S 10 17 30.06 1018 10 16 0.03 0.76
10:14 am 10:14 Cloudy 52 11 48 9 88 88 S 10 17 30.06 1018 10 16 0.00 0.00
10:21 am 10:21 Cloudy 51 10.6 49 9.4 92 92 SSE 8 13 30.06 1018 10 16 0.00 0.03
10:34 am 10:34 Cloudy 52 11 50 10 94 94 S 8 13 30.09 1019 10 16 0.00 0.00
10:46 am 10:46 Cloudy 51 10.6 49 9.4 92 92 S 10 17 30.09 1019 10 16 0.00 0.03
10:53 am 10:53 Cloudy 51 10.6 49 9.4 92 92 S 10 17 30.07 1018 10 16 0.00 0.03
11:53 am 11:53 Cloudy 52 11.1 48 8.9 86 86 S 12 19 30.07 1018 10 16 0.00 0.03
12:53 pm 12:53 Cloudy 53 11.7 47 8.3 80 80 S 13 20 30.06 1018 10 16 0.00 0.00
1:53 pm 13:53 Cloudy 55 12.8 46 7.8 72 72 S 12 19 30.05 1018 10 16 0.00 0.00
2:53 pm 14:53 Cloudy 55 12.8 41 5 59 59 S 14 22 30.03 1017 10 16 0.00 0.00
3:53 pm 15:53 Cloudy 55 12.8 44 6.7 67 67 Calm 30.00 1016 10 16 0.00 0.03
4:53 pm 16:53 Cloudy 54 12.2 44 6.7 69 69 S 6 9 30.00 1016 10 16 0.00 0.03
5:53 pm 17:53 Cloudy with Light Rain 52 11.1 44 6.7 75 75 S 17 28 29.99 1016 6 10 0.02 0.51
6:05 pm 18:05 Cloudy with Rain 51 10.6 45 7.2 80 80 S 17 28 30.00 1016 3 5 0.02 0.51
6:53 pm 18:53 Cloudy with Light Rain 50 10 48 8.9 93 93 WNW 6 9 30.00 1016 9 14 0.07 1.78
7:53 pm 19:53 Cloudy 51 10.6 49 9.4 92 92 Calm 29.98 1015 10 16 0.04 1.02
8:26 pm 20:26 Cloudy with Light Rain 50 10 48 9 94 94 WNW 5 7 30.00 1016 10 16 0.00 0.00
8:35 pm 20:35 Cloudy 49 9.4 48 8.9 97 97 NW 7 11 30.00 1016 10 16 0.00 0.03
8:46 pm 20:46 Cloudy with Rain 48 9 48 9 100 100 WNW 5 7 30.00 1016 4 6 0.00 0.00
8:53 pm 20:53 Cloudy with Rain 49 9.4 48 8.9 97 97 WSW 6 9 29.99 1016 3 5 0.04 1.02
9:53 pm 21:53 Cloudy with Light Rain 50 10 48 8.9 93 93 WNW 9 15 30.02 1017 9 14 0.01 0.25
10:07 pm 22:07 Cloudy with Heavy Rain 50 10 49 9.4 96 96 N 9 15 30.00 1016 2 3 0.09 2.29
10:16 pm 22:16 Cloudy with Light Rain 50 10 48 9 94 94 W 5 7 30.00 1016 8 13 0.00 0.00
10:53 pm 22:53 Cloudy 50 10 48 8.9 93 93 W 3 6 30.02 1017 10 16 0.10 2.54
11:35 pm 23:35 Cloudy 50 10 49 9.4 96 96 Calm 30.03 1017 10 16 0.00 0.00
11:53 pm 23:53 Mostly Cloudy 49 9.4 47 8.3 93 93 SE 3 6 30.02 1017 10 16 0.00 0.00

Powered by AerisWeather